Topeka, KS

12:13 PM CDT on May 27, 2018 (GMT -0500)
Billard Municipal

Weather History for KTOP - February, 2014

Change the Weather History Date:

Wednesday, February 26, 2014

  Actual Average Record
Temperature  
Mean Temperature 20 °F 38 °F  
Max Temperature 32 °F 49 °F 78 °F (1896)
Min Temperature 7 °F 27 °F -4 °F (1934)
Degree Days  
Heating Degree Days 45 27  
Month to date heating degree days 995 804  
Since 1 July heating degree days 4256 3914  
Cooling Degree Days 0 0  
Month to date cooling degree days 0 0  
Year to date cooling degree days 0 0  
Moisture  
Dew Point 7 °F    
Average Humidity 58    
Maximum Humidity 80    
Minimum Humidity 36    
Precipitation  
Precipitation 0.00 in 0.05 in 0.65 in (1913)
Month to date precipitation 1.29 1.21  
Year to date precipitation 1.66 2.07  
Snow  
Snow 0.00 in 0.10 in 4.30 in (1989)
Month to date snowfall 15.0 4.3  
Year to date snowfall 18.9 9.2  
Since 1 July snowfall 23.2 15.7  
Snow Depth 0.00 in    
Sea Level Pressure  
Sea Level Pressure 30.27 in    
Wind  
Wind Speed 8 mph (WNW)    
Max Wind Speed 18 mph    
Max Gust Speed 25 mph    
Visibility 10 miles    
Events      
T = Trace of Precipitation, MM = Missing Value Source: NWS Daily Summary

Daily Weather History Graph

Daily Weather History Graph

Search for Another Location

Airport or City:

Astronomy

Feb. 26, 2014 Rise Set
Actual Time 6:59 AM CST 6:11 PM CST
Civil Twilight 6:32 AM CST 6:38 PM CST
Nautical Twilight 6:01 AM CST 7:09 PM CST
Astronomical Twilight 5:30 AM CST 7:40 PM CST
Moon 4:45 AM CST (2/26) 3:28 PM CST (2/26)
Length of Visible Light 12h 06m
Length of Day
11h 12m
Waning Crescent, 10% of the Moon is Illuminated
Feb 26
Waning Crescent
Mar 1
New
Mar 8
First Quarter
Mar 16
Full
Mar 23
Last Quarter

Hourly Weather History & Observations

Time (CST) Temp. Windchill Dew Point Humidity Pressure Visibility Wind Dir Wind Speed Gust Speed Precip Events Conditions
12:53 AM 17.1 °F 3.6 °F 6.1 °F 62% 30.53 in 10.0 mi North 12.7 mph - N/A   Partly Cloudy
1:53 AM 16.0 °F 2.9 °F 3.0 °F 57% 30.52 in 10.0 mi NNW 11.5 mph - N/A   Clear
2:53 AM 12.0 °F 1.5 °F 1.9 °F 64% 30.50 in 10.0 mi NNW 6.9 mph - N/A   Clear
3:53 AM 12.0 °F -0.4 °F 1.0 °F 61% 30.48 in 10.0 mi North 9.2 mph - N/A   Clear
4:53 AM 10.0 °F 0.4 °F 1.0 °F 67% 30.45 in 10.0 mi NNW 5.8 mph - N/A   Clear
5:53 AM 10.0 °F - 1.0 °F 67% 30.45 in 10.0 mi Calm Calm - N/A   Clear
6:53 AM 7.0 °F -1.7 °F 1.0 °F 77% 30.43 in 10.0 mi NNE 4.6 mph - N/A   Clear
7:53 AM 10.9 °F 4.7 °F 3.0 °F 70% 30.43 in 10.0 mi NNW 3.5 mph - N/A   Clear
8:53 AM 12.9 °F 6.9 °F -0.0 °F 56% 30.44 in 10.0 mi Variable 3.5 mph - N/A   Clear
9:53 AM 16.0 °F 5.3 °F 3.0 °F 57% 30.42 in 10.0 mi WNW 8.1 mph - N/A   Clear
10:53 AM 19.9 °F 8.6 °F 5.0 °F 52% 30.38 in 10.0 mi West 10.4 mph - N/A   Clear
11:53 AM 23.0 °F 13.9 °F 6.1 °F 48% 30.34 in 10.0 mi West 8.1 mph - N/A   Clear
12:53 PM 27.0 °F 14.7 °F 5.0 °F 39% 30.27 in 10.0 mi West 16.1 mph 20.7 mph N/A   Clear
1:53 PM 28.0 °F 18.1 °F 6.1 °F 39% 30.20 in 10.0 mi West 11.5 mph 20.7 mph N/A   Clear
2:53 PM 30.9 °F 20.2 °F 6.1 °F 35% 30.18 in 10.0 mi WNW 15.0 mph 21.9 mph N/A   Clear
3:53 PM 30.9 °F 20.2 °F 9.0 °F 40% 30.13 in 10.0 mi West 15.0 mph 20.7 mph N/A   Clear
4:53 PM 32.0 °F 22.5 °F 9.0 °F 38% 30.11 in 10.0 mi West 12.7 mph 20.7 mph N/A   Clear
5:53 PM 30.9 °F 21.7 °F 10.9 °F 43% 30.08 in 10.0 mi WSW 11.5 mph - N/A   Clear
6:53 PM 30.0 °F 21.7 °F 12.9 °F 49% 30.08 in 10.0 mi WSW 9.2 mph - N/A   Clear
7:53 PM 28.9 °F 22.8 °F 15.1 °F 56% 30.07 in 10.0 mi WSW 5.8 mph - N/A   Clear
8:53 PM 28.0 °F 20.8 °F 16.0 °F 61% 30.05 in 10.0 mi SW 6.9 mph - N/A   Clear
9:53 PM 28.0 °F 22.8 °F 16.0 °F 61% 30.06 in 10.0 mi SW 4.6 mph - N/A   Clear
10:53 PM 26.1 °F - 16.0 °F 66% 30.05 in 10.0 mi Calm Calm - N/A   Clear
11:53 PM 25.0 °F 19.3 °F 17.1 °F 72% 30.05 in 10.0 mi West 4.6 mph - N/A   Clear